sat.trackr.live / text

‹ back to catalog

ONEWEB-0025

NORAD 45138 · 2020-008H

PAYLOAD ACTIVE UNKNOWN

§ Identity

Operator
Country
UK
Launch date
2020-02-06
Launch site
TYMSC
Launch vehicle
Mass (kg)
RCS (m²)

Purposes: comms

External: N2YO · Heavens-Above · Gunter

§ Orbital elements

Epoch: 2026-05-25T03:17:28.972032Z

Period
109.89 min
Inclination
87.8871°
Eccentricity
0.0001772
Mean motion
13.10378231 rev/d
Perigee alt
1,220.3 km
Apogee alt
1,223.0 km
Semi-major
7,599.8 km
B*
-5.2922e-4
RAAN
40.8332°
Arg perigee
95.9731°
Mean anomaly
264.1598°
Rev number
30,555

§ Raw data

ONEWEB-00251 45138U 20008H   26145.13714088 -.00000172  00000+0 -52922-3 0  99952 45138  87.8871  40.8332 0001772  95.9731 264.1598 13.10378231305555

JSON: /api/v1/satellites/45138 · /tle

For live sub-satellite position, see the globe view (requires WebGL).

§ Visibility from observer

Set your observer location to see the next 7 days of passes ≥ 10°. The values pass through the URL so the page stays shareable.

No JS? Fill the form by hand. The geolocation button needs JavaScript.